Saint Bonnet de Bellac- Haute Vienne - France
Donnes mto: dimanche, 02/09/2012
Date Horaire Temp. E. Hum. E. P.atmo. Pluie Vent Direction Direction Ensoleilleme Solaire P. de rose Temp au vent Rafales
02/09/2012 00:00 11,7 C 66 % 1025,5 hPa 0,0 mm 0,0 km/h (0 Bft) N-NE 22 0 min 0 W/m 5,6 C 11,7 C 2,9 km/h (1 Bft)
02/09/2012 00:10 11,6 C 66 % 1025,6 hPa 0,0 mm 1,8 km/h (1 Bft) N-NE 22 0 min 0 W/m 5,5 C 11,6 C 5,8 km/h (2 Bft)
02/09/2012 00:20 11,4 C 67 % 1025,7 hPa 0,0 mm 2,2 km/h (1 Bft) NE 45 0 min 0 W/m 5,5 C 11,4 C 3,2 km/h (1 Bft)
02/09/2012 00:30 11,3 C 68 % 1025,6 hPa 0,0 mm 2,2 km/h (1 Bft) N 360 0 min 0 W/m 5,6 C 11,3 C 9,7 km/h (2 Bft)
02/09/2012 00:40 11,2 C 69 % 1025,5 hPa 0,0 mm 1,4 km/h (1 Bft) N 360 0 min 0 W/m 5,7 C 11,2 C 4,0 km/h (1 Bft)
02/09/2012 00:50 11,1 C 69 % 1025,5 hPa 0,0 mm 0,0 km/h (0 Bft) NE 45 0 min 0 W/m 5,6 C 11,1 C 0,0 km/h (0 Bft)
02/09/2012 01:00 10,8 C 70 % 1025,5 hPa 0,0 mm 0,4 km/h (0 Bft) N-NE 22 0 min 0 W/m 5,6 C 10,8 C 3,6 km/h (1 Bft)
02/09/2012 01:10 10,5 C 70 % 1025,5 hPa 0,0 mm 0,4 km/h (0 Bft) N 360 0 min 0 W/m 5,3 C 10,5 C 0,4 km/h (0 Bft)
02/09/2012 01:20 10,3 C 72 % 1025,6 hPa 0,0 mm 1,1 km/h (1 Bft) N 360 0 min 0 W/m 5,5 C 10,3 C 6,1 km/h (2 Bft)
02/09/2012 01:30 10,3 C 74 % 1025,5 hPa 0,0 mm 0,7 km/h (0 Bft) N-NE 22 0 min 0 W/m 5,9 C 10,3 C 4,3 km/h (1 Bft)
02/09/2012 01:40 10,2 C 74 % 1025,4 hPa 0,0 mm 0,0 km/h (0 Bft) N 360 0 min 0 W/m 5,8 C 10,2 C 3,2 km/h (1 Bft)
02/09/2012 01:50 10,1 C 75 % 1025,5 hPa 0,0 mm 0,4 km/h (0 Bft) N-NE 22 0 min 0 W/m 5,9 C 10,1 C 4,3 km/h (1 Bft)
02/09/2012 02:00 10,1 C 77 % 1025,3 hPa 0,0 mm 0,7 km/h (0 Bft) NE 45 0 min 0 W/m 6,3 C 10,1 C 4,3 km/h (1 Bft)
02/09/2012 02:10 10,1 C 77 % 1025,2 hPa 0,0 mm 0,4 km/h (0 Bft) N 360 0 min 0 W/m 6,3 C 10,1 C 0,4 km/h (0 Bft)
02/09/2012 02:20 10,0 C 78 % 1025,0 hPa 0,0 mm 0,0 km/h (0 Bft) N-NE 22 0 min 0 W/m 6,3 C 10,0 C 0,0 km/h (0 Bft)
02/09/2012 02:30 9,9 C 78 % 1025,0 hPa 0,0 mm 0,0 km/h (0 Bft) N-NE 22 0 min 0 W/m 6,2 C 9,9 C 0,0 km/h (0 Bft)
02/09/2012 02:40 9,8 C 79 % 1025,0 hPa 0,0 mm 0,0 km/h (0 Bft) N-NE 22 0 min 0 W/m 6,3 C 9,8 C 0,0 km/h (0 Bft)
02/09/2012 02:50 9,7 C 79 % 1024,9 hPa 0,0 mm 0,0 km/h (0 Bft) N 360 0 min 0 W/m 6,2 C 9,7 C 0,0 km/h (0 Bft)
02/09/2012 03:02 9,4 C 79 % 1024,9 hPa 0,0 mm 0,0 km/h (0 Bft) N 360 0 min 0 W/m 5,9 C 9,4 C 0,0 km/h (0 Bft)
02/09/2012 03:10 9,1 C 79 % 1025,1 hPa 0,0 mm 0,0 km/h (0 Bft) N 360 0 min 0 W/m 5,7 C 9,1 C 0,0 km/h (0 Bft)
02/09/2012 03:20 8,8 C 80 % 1024,9 hPa 0,0 mm 0,0 km/h (0 Bft) O-NO 292 0 min 0 W/m 5,5 C 8,8 C 0,0 km/h (0 Bft)
02/09/2012 03:30 8,6 C 81 % 1024,9 hPa 0,0 mm 0,0 km/h (0 Bft) S-SO 202 0 min 0 W/m 5,5 C 8,6 C 0,0 km/h (0 Bft)
02/09/2012 03:40 8,3 C 81 % 1025,0 hPa 0,0 mm 0,0 km/h (0 Bft) S-SO 202 0 min 0 W/m 5,2 C 8,3 C 0,0 km/h (0 Bft)
02/09/2012 03:50 8,2 C 82 % 1024,8 hPa 0,0 mm 0,0 km/h (0 Bft) S-SO 202 0 min 0 W/m 5,3 C 8,2 C 0,0 km/h (0 Bft)
02/09/2012 04:00 8,1 C 83 % 1024,9 hPa 0,0 mm 0,0 km/h (0 Bft) S-SO 202 0 min 0 W/m 5,4 C 8,1 C 0,0 km/h (0 Bft)
02/09/2012 04:10 7,9 C 83 % 1024,8 hPa 0,0 mm 0,0 km/h (0 Bft) E-NE 67 0 min 0 W/m 5,2 C 7,9 C 0,0 km/h (0 Bft)
02/09/2012 04:20 7,8 C 83 % 1024,7 hPa 0,0 mm 0,0 km/h (0 Bft) E-NE 67 0 min 0 W/m 5,1 C 7,8 C 0,0 km/h (0 Bft)
02/09/2012 04:30 7,8 C 83 % 1024,8 hPa 0,0 mm 0,0 km/h (0 Bft) N-NE 22 0 min 0 W/m 5,1 C 7,8 C 0,0 km/h (0 Bft)
02/09/2012 04:40 7,6 C 83 % 1025,0 hPa 0,0 mm 0,0 km/h (0 Bft) O-NO 292 0 min 0 W/m 4,9 C 7,6 C 0,0 km/h (0 Bft)
02/09/2012 04:50 7,4 C 83 % 1025,0 hPa 0,0 mm 0,0 km/h (0 Bft) O-SO 247 0 min 0 W/m 4,7 C 7,4 C 0,0 km/h (0 Bft)
02/09/2012 05:00 7,2 C 84 % 1025,2 hPa 0,0 mm 0,0 km/h (0 Bft) SO 225 0 min 0 W/m 4,7 C 7,2 C 0,0 km/h (0 Bft)
02/09/2012 05:10 7,2 C 85 % 1025,1 hPa 0,0 mm 0,0 km/h (0 Bft) SO 225 0 min 0 W/m 4,9 C 7,2 C 0,0 km/h (0 Bft)
02/09/2012 05:20 7,2 C 85 % 1024,9 hPa 0,0 mm 0,0 km/h (0 Bft) SO 225 0 min 0 W/m 4,9 C 7,2 C 0,0 km/h (0 Bft)
02/09/2012 05:30 7,3 C 86 % 1024,7 hPa 0,0 mm 0,0 km/h (0 Bft) SO 225 0 min 0 W/m 5,1 C 7,3 C 0,0 km/h (0 Bft)
02/09/2012 05:40 7,3 C 86 % 1024,7 hPa 0,0 mm 0,0 km/h (0 Bft) N-NE 22 0 min 0 W/m 5,1 C 7,3 C 0,0 km/h (0 Bft)
02/09/2012 05:50 7,3 C 86 % 1024,6 hPa 0,0 mm 0,0 km/h (0 Bft) N-NE 22 0 min 0 W/m 5,1 C 7,3 C 0,0 km/h (0 Bft)
02/09/2012 06:00 7,2 C 86 % 1024,7 hPa 0,0 mm 0,0 km/h (0 Bft) N-NE 22 0 min 0 W/m 5,0 C 7,2 C 0,0 km/h (0 Bft)
02/09/2012 06:10 7,1 C 86 % 1024,7 hPa 0,0 mm 0,0 km/h (0 Bft) N-NE 22 0 min 0 W/m 4,9 C 7,1 C 0,0 km/h (0 Bft)
02/09/2012 06:20 7,1 C 86 % 1024,7 hPa 0,0 mm 0,0 km/h (0 Bft) E 90 0 min 0 W/m 4,9 C 7,1 C 0,0 km/h (0 Bft)
02/09/2012 06:30 7,1 C 87 % 1024,7 hPa 0,0 mm 0,0 km/h (0 Bft) E-SE 112 0 min 0 W/m 5,1 C 7,1 C 0,0 km/h (0 Bft)
02/09/2012 06:40 7,1 C 86 % 1025,2 hPa 0,0 mm 1,1 km/h (1 Bft) NO 315 0 min 0 W/m 4,9 C 7,1 C 1,1 km/h (1 Bft)
02/09/2012 06:50 6,8 C 86 % 1025,3 hPa 0,0 mm 0,0 km/h (0 Bft) NO 315 0 min 0 W/m 4,6 C 6,8 C 0,0 km/h (0 Bft)
02/09/2012 07:00 6,5 C 86 % 1025,2 hPa 0,0 mm 0,0 km/h (0 Bft) NO 315 0 min 0 W/m 4,3 C 6,5 C 0,0 km/h (0 Bft)
02/09/2012 07:10 6,4 C 86 % 1025,2 hPa 0,0 mm 0,0 km/h (0 Bft) NO 315 0 min 0 W/m 4,2 C 6,4 C 0,0 km/h (0 Bft)
02/09/2012 07:20 6,3 C 86 % 1025,2 hPa 0,0 mm 0,0 km/h (0 Bft) NO 315 0 min 0 W/m 4,1 C 6,3 C 0,0 km/h (0 Bft)
02/09/2012 07:30 6,3 C 87 % 1025,3 hPa 0,0 mm 0,0 km/h (0 Bft) N-NE 22 0 min 0 W/m 4,3 C 6,3 C 0,0 km/h (0 Bft)
02/09/2012 07:40 6,8 C 87 % 1025,3 hPa 0,0 mm 0,0 km/h (0 Bft) N-NE 22 0 min 0 W/m 4,8 C 6,8 C 0,0 km/h (0 Bft)
02/09/2012 07:50 7,1 C 88 % 1025,3 hPa 0,0 mm 0,0 km/h (0 Bft) N-NE 22 0 min 0 W/m 5,2 C 7,1 C 0,0 km/h (0 Bft)
02/09/2012 08:00 7,3 C 88 % 1025,5 hPa 0,0 mm 0,0 km/h (0 Bft) N-NE 22 0 min 0 W/m 5,4 C 7,3 C 0,0 km/h (0 Bft)
02/09/2012 08:10 7,5 C 88 % 1025,7 hPa 0,0 mm 0,0 km/h (0 Bft) N-NE 22 0 min 0 W/m 5,6 C 7,5 C 0,0 km/h (0 Bft)
02/09/2012 08:20 7,7 C 88 % 1025,9 hPa 0,0 mm 0,0 km/h (0 Bft) N-NE 22 0 min 0 W/m 5,8 C 7,7 C 0,0 km/h (0 Bft)
02/09/2012 08:30 8,0 C 88 % 1025,9 hPa 0,0 mm 0,0 km/h (0 Bft) N-NE 22 0 min 0 W/m 6,1 C 8,0 C 0,0 km/h (0 Bft)
02/09/2012 08:40 8,3 C 88 % 1025,9 hPa 0,0 mm 0,0 km/h (0 Bft) N-NE 22 0 min 0 W/m 6,4 C 8,3 C 0,0 km/h (0 Bft)
02/09/2012 08:50 8,6 C 89 % 1025,9 hPa 0,0 mm 0,0 km/h (0 Bft) N-NE 22 0 min 0 W/m 6,9 C 8,6 C 0,0 km/h (0 Bft)
02/09/2012 09:00 8,9 C 89 % 1026,0 hPa 0,0 mm 0,0 km/h (0 Bft) NE 45 0 min 0 W/m 7,2 C 8,9 C 0,0 km/h (0 Bft)
02/09/2012 09:10 9,3 C 89 % 1025,9 hPa 0,0 mm 0,0 km/h (0 Bft) N-NO 337 0 min 0 W/m 7,6 C 9,3 C 3,2 km/h (1 Bft)
02/09/2012 09:20 9,6 C 89 % 1026,1 hPa 0,0 mm 0,0 km/h (0 Bft) NE 45 0 min 0 W/m 7,9 C 9,6 C 0,0 km/h (0 Bft)
02/09/2012 09:30 10,0 C 89 % 1026,1 hPa 0,0 mm 0,0 km/h (0 Bft) NE 45 0 min 0 W/m 8,3 C 10,0 C 0,0 km/h (0 Bft)
02/09/2012 09:40 10,6 C 89 % 1026,0 hPa 0,0 mm 0,0 km/h (0 Bft) NE 45 0 min 0 W/m 8,9 C 10,6 C 3,6 km/h (1 Bft)
02/09/2012 09:50 11,3 C 90 % 1026,0 hPa 0,0 mm 3,2 km/h (1 Bft) NE 45 0 min 0 W/m 9,7 C 11,3 C 6,1 km/h (2 Bft)
02/09/2012 10:00 12,1 C 90 % 1026,3 hPa 0,0 mm 0,0 km/h (0 Bft) NE 45 0 min 0 W/m 10,5 C 12,1 C 0,0 km/h (0 Bft)
02/09/2012 10:10 12,8 C 89 % 1026,3 hPa 0,0 mm 0,0 km/h (0 Bft) E 90 0 min 0 W/m 11,0 C 12,8 C 0,0 km/h (0 Bft)
02/09/2012 10:20 12,9 C 87 % 1026,4 hPa 0,0 mm 0,4 km/h (0 Bft) S 180 0 min 0 W/m 10,8 C 12,9 C 3,2 km/h (1 Bft)
02/09/2012 10:30 13,4 C 86 % 1026,5 hPa 0,0 mm 0,4 km/h (0 Bft) NO 315 0 min 0 W/m 11,1 C 13,4 C 0,4 km/h (0 Bft)
02/09/2012 10:40 13,8 C 84 % 1026,3 hPa 0,0 mm 0,0 km/h (0 Bft) E 90 0 min 0 W/m 11,1 C 13,8 C 0,0 km/h (0 Bft)
02/09/2012 10:50 14,4 C 82 % 1026,5 hPa 0,0 mm 1,8 km/h (1 Bft) N-NE 22 0 min 0 W/m 11,4 C 14,4 C 4,0 km/h (1 Bft)
02/09/2012 11:00 15,2 C 79 % 1026,5 hPa 0,0 mm 2,2 km/h (1 Bft) N-NO 337 0 min 0 W/m 11,6 C 15,2 C 2,2 km/h (1 Bft)
02/09/2012 11:10 16,2 C 76 % 1026,6 hPa 0,0 mm 2,5 km/h (1 Bft) N-NO 337 0 min 0 W/m 12,0 C 16,2 C 4,3 km/h (1 Bft)
02/09/2012 11:20 17,0 C 72 % 1026,5 hPa 0,0 mm 0,4 km/h (0 Bft) N-NE 22 0 min 0 W/m 11,9 C 17,0 C 0,4 km/h (0 Bft)
02/09/2012 11:30 17,8 C 68 % 1026,5 hPa 0,0 mm 0,0 km/h (0 Bft) NE 45 0 min 0 W/m 11,8 C 17,8 C 0,0 km/h (0 Bft)
02/09/2012 11:40 18,5 C 64 % 1026,5 hPa 0,0 mm 1,4 km/h (1 Bft) NE 45 0 min 0 W/m 11,6 C 18,5 C 2,9 km/h (1 Bft)
02/09/2012 11:50 19,2 C 63 % 1026,4 hPa 0,0 mm 0,0 km/h (0 Bft) E-NE 67 0 min 0 W/m 12,0 C 19,2 C 0,0 km/h (0 Bft)
02/09/2012 12:00 20,1 C 60 % 1026,4 hPa 0,0 mm 5,4 km/h (2 Bft) N-NE 22 0 min 0 W/m 12,1 C 20,1 C 7,6 km/h (2 Bft)
02/09/2012 12:10 20,9 C 58 % 1026,4 hPa 0,0 mm 1,4 km/h (1 Bft) O 270 0 min 0 W/m 12,3 C 20,9 C 3,2 km/h (1 Bft)
02/09/2012 12:20 21,1 C 56 % 1026,3 hPa 0,0 mm 1,1 km/h (1 Bft) N 360 0 min 0 W/m 12,0 C 21,1 C 1,1 km/h (1 Bft)
02/09/2012 12:30 21,5 C 53 % 1026,2 hPa 0,0 mm 2,5 km/h (1 Bft) O 270 0 min 0 W/m 11,5 C 21,5 C 3,6 km/h (1 Bft)
02/09/2012 12:40 22,1 C 51 % 1026,2 hPa 0,0 mm 0,4 km/h (0 Bft) NO 315 0 min 0 W/m 11,5 C 22,1 C 1,4 km/h (1 Bft)
02/09/2012 12:50 22,3 C 49 % 1026,1 hPa 0,0 mm 6,5 km/h (2 Bft) NO 315 0 min 0 W/m 11,1 C 22,3 C 11,2 km/h (2 Bft)
02/09/2012 13:00 22,5 C 48 % 1026,0 hPa 0,0 mm 0,0 km/h (0 Bft) NE 45 0 min 0 W/m 10,9 C 22,5 C 0,0 km/h (0 Bft)
02/09/2012 13:10 22,7 C 47 % 1026,0 hPa 0,0 mm 2,9 km/h (1 Bft) N 360 0 min 0 W/m 10,8 C 22,7 C 6,8 km/h (2 Bft)
02/09/2012 13:20 22,6 C 46 % 1025,9 hPa 0,0 mm 5,0 km/h (1 Bft) E 90 0 min 0 W/m 10,4 C 22,6 C 9,4 km/h (2 Bft)
02/09/2012 13:30 22,3 C 47 % 1025,7 hPa 0,0 mm 4,0 km/h (1 Bft) N-NO 337 0 min 0 W/m 10,4 C 22,3 C 6,8 km/h (2 Bft)
02/09/2012 13:40 22,3 C 47 % 1025,7 hPa 0,0 mm 6,8 km/h (2 Bft) N-NE 22 0 min 0 W/m 10,4 C 22,3 C 12,6 km/h (3 Bft)
02/09/2012 13:50 22,5 C 48 % 1025,7 hPa 0,0 mm 7,9 km/h (2 Bft) NE 45 0 min 0 W/m 10,9 C 22,5 C 7,9 km/h (2 Bft)
02/09/2012 14:00 22,6 C 48 % 1025,7 hPa 0,0 mm 2,2 km/h (1 Bft) E-NE 67 0 min 0 W/m 11,0 C 22,6 C 4,0 km/h (1 Bft)
02/09/2012 14:10 22,9 C 48 % 1025,7 hPa 0,0 mm 4,0 km/h (1 Bft) E-NE 67 0 min 0 W/m 11,3 C 22,9 C 6,5 km/h (2 Bft)
02/09/2012 14:20 23,3 C 47 % 1025,8 hPa 0,0 mm 4,3 km/h (1 Bft) N-NE 22 0 min 0 W/m 11,3 C 23,3 C 7,6 km/h (2 Bft)
02/09/2012 14:30 23,3 C 47 % 1025,6 hPa 0,0 mm 0,0 km/h (0 Bft) N-NE 22 0 min 0 W/m 11,3 C 23,3 C 4,0 km/h (1 Bft)
02/09/2012 14:40 23,5 C 47 % 1025,5 hPa 0,0 mm 9,7 km/h (2 Bft) NE 45 0 min 0 W/m 11,5 C 23,5 C 11,9 km/h (2 Bft)
02/09/2012 14:50 23,5 C 46 % 1025,4 hPa 0,0 mm 2,9 km/h (1 Bft) NE 45 0 min 0 W/m 11,2 C 23,5 C 6,8 km/h (2 Bft)
02/09/2012 15:00 23,4 C 47 % 1025,4 hPa 0,0 mm 4,3 km/h (1 Bft) N-NE 22 0 min 0 W/m 11,4 C 23,4 C 4,3 km/h (1 Bft)
02/09/2012 15:10 23,4 C 48 % 1025,2 hPa 0,0 mm 4,3 km/h (1 Bft) N-NO 337 0 min 0 W/m 11,8 C 23,4 C 9,7 km/h (2 Bft)
02/09/2012 15:20 23,3 C 49 % 1025,1 hPa 0,0 mm 5,8 km/h (2 Bft) N-NE 22 0 min 0 W/m 12,0 C 23,3 C 10,1 km/h (2 Bft)
02/09/2012 15:30 23,2 C 50 % 1024,9 hPa 0,0 mm 5,4 km/h (2 Bft) N-NE 22 0 min 0 W/m 12,2 C 23,2 C 9,0 km/h (2 Bft)
02/09/2012 15:40 23,3 C 50 % 1024,8 hPa 0,0 mm 4,0 km/h (1 Bft) NO 315 0 min 0 W/m 12,3 C 23,3 C 13,3 km/h (3 Bft)
02/09/2012 15:50 23,1 C 51 % 1024,9 hPa 0,0 mm 13,0 km/h (3 Bft) N 360 0 min 0 W/m 12,4 C 23,1 C 20,9 km/h (4 Bft)
02/09/2012 16:00 23,2 C 51 % 1024,8 hPa 0,0 mm 5,8 km/h (2 Bft) NE 45 0 min 0 W/m 12,5 C 23,2 C 6,5 km/h (2 Bft)
02/09/2012 16:10 23,4 C 52 % 1024,8 hPa 0,0 mm 11,2 km/h (2 Bft) N-NO 337 0 min 0 W/m 13,0 C 23,4 C 18,7 km/h (3 Bft)
02/09/2012 16:20 23,3 C 52 % 1024,7 hPa 0,0 mm 7,2 km/h (2 Bft) NO 315 0 min 0 W/m 12,9 C 23,3 C 14,0 km/h (3 Bft)
02/09/2012 16:30 23,4 C 52 % 1024,8 hPa 0,0 mm 6,8 km/h (2 Bft) N 360 0 min 0 W/m 13,0 C 23,4 C 9,0 km/h (2 Bft)
02/09/2012 16:40 23,3 C 52 % 1024,8 hPa 0,0 mm 4,3 km/h (1 Bft) N-NO 337 0 min 0 W/m 12,9 C 23,3 C 7,2 km/h (2 Bft)
02/09/2012 16:50 23,3 C 52 % 1024,7 hPa 0,0 mm 4,7 km/h (1 Bft) O-NO 292 0 min 0 W/m 12,9 C 23,3 C 8,3 km/h (2 Bft)
02/09/2012 17:00 23,0 C 53 % 1024,6 hPa 0,0 mm 6,5 km/h (2 Bft) NE 45 0 min 0 W/m 12,9 C 23,0 C 11,2 km/h (2 Bft)
02/09/2012 17:10 22,9 C 54 % 1024,6 hPa 0,0 mm 5,4 km/h (2 Bft) N-NO 337 0 min 0 W/m 13,1 C 22,9 C 8,3 km/h (2 Bft)
02/09/2012 17:20 22,9 C 54 % 1024,6 hPa 0,0 mm 8,6 km/h (2 Bft) N-NO 337 0 min 0 W/m 13,1 C 22,9 C 13,0 km/h (3 Bft)
02/09/2012 17:30 22,9 C 53 % 1024,6 hPa 0,0 mm 5,4 km/h (2 Bft) N-NE 22 0 min 0 W/m 12,8 C 22,9 C 11,9 km/h (2 Bft)
02/09/2012 17:40 22,8 C 54 % 1024,6 hPa 0,0 mm 9,4 km/h (2 Bft) N 360 0 min 0 W/m 13,0 C 22,8 C 16,2 km/h (3 Bft)
02/09/2012 17:50 22,5 C 55 % 1024,6 hPa 0,0 mm 4,7 km/h (1 Bft) N-NO 337 0 min 0 W/m 13,0 C 22,5 C 7,9 km/h (2 Bft)
02/09/2012 18:00 22,2 C 55 % 1024,5 hPa 0,0 mm 2,9 km/h (1 Bft) O-NO 292 0 min 0 W/m 12,7 C 22,2 C 6,8 km/h (2 Bft)
02/09/2012 18:10 21,8 C 56 % 1024,6 hPa 0,0 mm 2,9 km/h (1 Bft) E-NE 67 0 min 0 W/m 12,6 C 21,8 C 6,8 km/h (2 Bft)
02/09/2012 18:20 21,4 C 56 % 1024,6 hPa 0,0 mm 1,1 km/h (1 Bft) NE 45 0 min 0 W/m 12,3 C 21,4 C 1,4 km/h (1 Bft)
02/09/2012 18:30 21,1 C 57 % 1024,6 hPa 0,0 mm 5,4 km/h (2 Bft) NE 45 0 min 0 W/m 12,2 C 21,1 C 9,0 km/h (2 Bft)
02/09/2012 18:40 21,1 C 58 % 1024,6 hPa 0,0 mm 1,8 km/h (1 Bft) N-NO 337 0 min 0 W/m 12,5 C 21,1 C 1,8 km/h (1 Bft)
02/09/2012 18:50 20,8 C 58 % 1024,7 hPa 0,0 mm 1,8 km/h (1 Bft) O-NO 292 0 min 0 W/m 12,2 C 20,8 C 4,7 km/h (1 Bft)
02/09/2012 19:00 20,5 C 59 % 1024,7 hPa 0,0 mm 0,4 km/h (0 Bft) NE 45 0 min 0 W/m 12,2 C 20,5 C 0,4 km/h (0 Bft)
02/09/2012 19:10 20,4 C 59 % 1024,7 hPa 0,0 mm 0,0 km/h (0 Bft) N-NE 22 0 min 0 W/m 12,1 C 20,4 C 8,3 km/h (2 Bft)
02/09/2012 19:20 20,2 C 60 % 1024,8 hPa 0,0 mm 2,9 km/h (1 Bft) N-NE 22 0 min 0 W/m 12,2 C 20,2 C 6,1 km/h (2 Bft)
02/09/2012 19:30 20,1 C 60 % 1024,8 hPa 0,0 mm 0,7 km/h (0 Bft) N-NO 337 0 min 0 W/m 12,1 C 20,1 C 6,5 km/h (2 Bft)
02/09/2012 19:40 19,9 C 61 % 1024,8 hPa 0,0 mm 3,2 km/h (1 Bft) N-NE 22 0 min 0 W/m 12,2 C 19,9 C 4,3 km/h (1 Bft)
02/09/2012 19:50 19,8 C 61 % 1024,9 hPa 0,0 mm 0,0 km/h (0 Bft) N-NE 22 0 min 0 W/m 12,1 C 19,8 C 0,0 km/h (0 Bft)
02/09/2012 20:00 19,7 C 62 % 1025,0 hPa 0,0 mm 0,0 km/h (0 Bft) E-NE 67 0 min 0 W/m 12,2 C 19,7 C 2,9 km/h (1 Bft)
02/09/2012 20:10 19,6 C 62 % 1024,9 hPa 0,0 mm 0,7 km/h (0 Bft) E-NE 67 0 min 0 W/m 12,1 C 19,6 C 1,4 km/h (1 Bft)
02/09/2012 20:20 19,4 C 63 % 1024,9 hPa 0,0 mm 0,0 km/h (0 Bft) N-NE 22 0 min 0 W/m 12,2 C 19,4 C 0,0 km/h (0 Bft)
02/09/2012 20:30 19,3 C 63 % 1024,7 hPa 0,0 mm 0,0 km/h (0 Bft) N-NE 22 0 min 0 W/m 12,1 C 19,3 C 0,0 km/h (0 Bft)
02/09/2012 20:40 19,2 C 64 % 1024,7 hPa 0,0 mm 0,0 km/h (0 Bft) N-NE 22 0 min 0 W/m 12,2 C 19,2 C 0,0 km/h (0 Bft)
02/09/2012 20:50 19,1 C 64 % 1024,8 hPa 0,0 mm 0,0 km/h (0 Bft) N-NE 22 0 min 0 W/m 12,1 C 19,1 C 0,0 km/h (0 Bft)
02/09/2012 21:00 18,9 C 64 % 1024,9 hPa 0,0 mm 0,0 km/h (0 Bft) N-NE 22 0 min 0 W/m 11,9 C 18,9 C 0,0 km/h (0 Bft)
02/09/2012 21:10 18,8 C 65 % 1025,2 hPa 0,0 mm 0,0 km/h (0 Bft) N-NE 22 0 min 0 W/m 12,1 C 18,8 C 0,0 km/h (0 Bft)
02/09/2012 21:20 18,6 C 65 % 1025,3 hPa 0,0 mm 0,0 km/h (0 Bft) N-NE 22 0 min 0 W/m 11,9 C 18,6 C 0,0 km/h (0 Bft)
02/09/2012 21:30 18,5 C 65 % 1025,4 hPa 0,0 mm 0,0 km/h (0 Bft) N-NE 22 0 min 0 W/m 11,8 C 18,5 C 0,0 km/h (0 Bft)
02/09/2012 21:40 18,4 C 66 % 1025,5 hPa 0,0 mm 0,0 km/h (0 Bft) N-NE 22 0 min 0 W/m 11,9 C 18,4 C 0,0 km/h (0 Bft)
02/09/2012 21:50 18,2 C 66 % 1025,5 hPa 0,0 mm 0,0 km/h (0 Bft) N-NE 22 0 min 0 W/m 11,7 C 18,2 C 0,0 km/h (0 Bft)
02/09/2012 22:00 18,1 C 67 % 1025,7 hPa 0,0 mm 0,0 km/h (0 Bft) N-NE 22 0 min 0 W/m 11,9 C 18,1 C 0,0 km/h (0 Bft)
02/09/2012 22:10 18,0 C 67 % 1025,7 hPa 0,0 mm 0,0 km/h (0 Bft) N-NE 22 0 min 0 W/m 11,8 C 18,0 C 0,0 km/h (0 Bft)
02/09/2012 22:20 17,9 C 68 % 1025,8 hPa 0,0 mm 0,0 km/h (0 Bft) N-NE 22 0 min 0 W/m 11,9 C 17,9 C 0,0 km/h (0 Bft)
02/09/2012 22:30 17,9 C 69 % 1025,6 hPa 0,0 mm 0,7 km/h (0 Bft) N-NE 22 0 min 0 W/m 12,1 C 17,9 C 0,7 km/h (0 Bft)
02/09/2012 22:40 17,8 C 69 % 1025,7 hPa 0,0 mm 0,0 km/h (0 Bft) N-NE 22 0 min 0 W/m 12,0 C 17,8 C 0,0 km/h (0 Bft)
02/09/2012 22:50 17,8 C 69 % 1025,7 hPa 0,0 mm 0,0 km/h (0 Bft) N-NE 22 0 min 0 W/m 12,0 C 17,8 C 0,0 km/h (0 Bft)
02/09/2012 23:00 17,8 C 69 % 1025,7 hPa 0,0 mm 0,0 km/h (0 Bft) N 360 0 min 0 W/m 12,0 C 17,8 C 0,0 km/h (0 Bft)
02/09/2012 23:10 17,8 C 70 % 1025,7 hPa 0,0 mm 0,4 km/h (0 Bft) N 360 0 min 0 W/m 12,3 C 17,8 C 3,2 km/h (1 Bft)
02/09/2012 23:20 17,8 C 70 % 1025,6 hPa 0,0 mm 1,8 km/h (1 Bft) N 360 0 min 0 W/m 12,3 C 17,8 C 3,2 km/h (1 Bft)
02/09/2012 23:30 17,8 C 70 % 1025,5 hPa 0,0 mm 0,0 km/h (0 Bft) N 360 0 min 0 W/m 12,3 C 17,8 C 0,0 km/h (0 Bft)
02/09/2012 23:40 17,7 C 70 % 1025,4 hPa 0,0 mm 0,0 km/h (0 Bft) N 360 0 min 0 W/m 12,2 C 17,7 C 0,0 km/h (0 Bft)
_ Min-Heure 07:30 14:50 18:00 - 23:40 - - - - 07:20 07:30 23:40
Minimum _ 6,3 C 46 % 1024,5 hPa - 0,0 km/h (0 Bft) - - - - 4,1 C 6,3 C 0,0 km/h (0 Bft)
_ Max-Heure 14:50 10:00 11:10 23:40 15:50 - - 23:40 23:40 17:20 14:50 15:50
Maximum _ 23,5 C 90 % 1026,6 hPa 0,0 mm 13,0 km/h
N (3 Bft)
- - 0 min 0 W/m 13,1 C 23,5 C 20,9 km/h
N (4 Bft)
Moyenne _ 15,4 C 69 % 1025,4 hPa #0,0 mm 1,7 km/h (1 Bft) N-NE - #0 min. 0 W/m 9,3 C 15,4 C 3,2 km/h (1 Bft)
Saint Bonnet de Bellac- Haute Vienne - France